User: anonymous   Login
Location: Unspecified
(0.0000°N, 0.0000°E)
Time: 22:19:56
(UTC+00:00)
Language:

STARLINK-5131 - Orbit

View from above orbital plane
View from above orbital plane
View from above satellite
View from above satellite

Ground track
Ground track

The orbit is defined by the following mean orbital elements,

1 53996U          26145.52048677 +.00000000 +00000-0 +37596-4 0 00006
2 53996  53.2123 229.0529 0000984  87.8516 272.2588 15.08836454    03
Epoch (UTC): 25 May 2026 12:29:30
Eccentricity: 0.0000984
inclination: 53.2123°
perigee height: 539 km
apogee height: 540 km
right ascension of ascending node: 229.0529°
argument of perigee: 87.8516°
revolutions per day: 15.08836454
mean anomaly at epoch: 272.2588°

The dashed part of the orbit path shows where the satellite is in the earth's shadow,  

DLR